• In Hungary
  • List of Countries
  • For 7 days
  • Water Temperature
  • Satellite Maps
  • Weather Map
  • News
  • Weather Widgets
  • user-avatar
    Login

    Hourly Weather Trzcinisko

    Today, 17 July, Tuesday

    Time Temperature Precipitation Wind Pressure Humidity
    00:00 +19°C° 0.1 mm 2 mps 757 mmHg 94%
    01:00 +19°C° 0.1 mm 2 mps 757 mmHg 94%
    02:00 +19°C° 0.3 mm 2 mps 757 mmHg 94%
    03:00 +19°C° 0.3 mm 2 mps 757 mmHg 95%
    04:00 +19°C° 0.3 mm 3 mps 756 mmHg 95%
    05:00 +20°C° 0.3 mm 3 mps 756 mmHg 94%
    06:00 +20°C° 0.3 mm 3 mps 756 mmHg 92%
    07:00 +21°C° 0.3 mm 3 mps 756 mmHg 91%
    08:00 +21°C° 0.8 mm 4 mps 756 mmHg 90%
    09:00 +22°C° 0.8 mm 4 mps 756 mmHg 90%
    10:00 +22°C° 0.8 mm 4 mps 756 mmHg 89%
    11:00 +22°C° 0.7 mm 5 mps 756 mmHg 89%
    12:00 +22°C° 0.7 mm 5 mps 756 mmHg 89%
    13:00 +22°C° 0.7 mm 5 mps 756 mmHg 88%
    14:00 +22°C° 1 mm 5 mps 756 mmHg 89%
    15:00 +22°C° 1 mm 5 mps 755 mmHg 89%
    16:00 +22°C° 1 mm 4 mps 755 mmHg 90%
    17:00 +22°C° 1 mm 4 mps 755 mmHg 92%
    18:00 +21°C° 1 mm 4 mps 755 mmHg 94%
    19:00 +20°C° 1 mm 4 mps 755 mmHg 95%
    20:00 +20°C° 0.7 mm 3 mps 756 mmHg 96%
    21:00 +20°C° 0.7 mm 3 mps 756 mmHg 96%
    22:00 +20°C° 0.7 mm 3 mps 756 mmHg 96%
    23:00 +20°C° 0.6 mm 3 mps 756 mmHg 96%

    Tomorrow, 18 July, Wednesday

    Time Temperature Precipitation Wind Pressure Humidity
    00:00 +20°C° 0.6 mm 3 mps 756 mmHg 96%
    01:00 +20°C° 0.6 mm 3 mps 756 mmHg 96%
    02:00 +20°C° 0.3 mm 3 mps 756 mmHg 96%
    03:00 +19°C° 0.3 mm 3 mps 756 mmHg 96%
    04:00 +19°C° 0.3 mm 3 mps 756 mmHg 96%
    05:00 +20°C° 0.2 mm 2 mps 756 mmHg 95%
    06:00 +21°C° 0.2 mm 2 mps 756 mmHg 93%
    07:00 +21°C° 0.2 mm 2 mps 756 mmHg 92%
    08:00 +22°C° 0.4 mm 3 mps 756 mmHg 88%
    09:00 +25°C° 0.4 mm 3 mps 756 mmHg 85%
    10:00 +26°C° 0.4 mm 3 mps 756 mmHg 82%
    11:00 +26°C° 0.9 mm 3 mps 756 mmHg 82%
    12:00 +26°C° 0.9 mm 4 mps 756 mmHg 81%
    13:00 +27°C° 0.9 mm 4 mps 757 mmHg 81%
    14:00 +26°C° 0.4 mm 4 mps 757 mmHg 82%
    15:00 +25°C° 0.4 mm 4 mps 757 mmHg 84%
    16:00 +25°C° 0.4 mm 4 mps 757 mmHg 86%
    17:00 +23°C° 0 mm 4 mps 757 mmHg 87%
    18:00 +22°C° 0 mm 4 mps 757 mmHg 89%
    19:00 +22°C° 0 mm 4 mps 757 mmHg 90%
    20:00 +21°C° 0.1 mm 4 mps 758 mmHg 91%
    21:00 +21°C° 0.1 mm 4 mps 758 mmHg 92%
    22:00 +20°C° 0.1 mm 4 mps 758 mmHg 93%
    23:00 +20°C° 0 mm 4 mps 758 mmHg 94%

    Day after tomorrow, 19 July, Thursday

    Time Temperature Precipitation Wind Pressure Humidity
    00:00 +20°C° 0 mm 4 mps 758 mmHg 94%
    01:00 +19°C° 0 mm 4 mps 758 mmHg 94%
    02:00 +19°C° 0 mm 4 mps 758 mmHg 94%
    03:00 +19°C° 0 mm 4 mps 758 mmHg 94%
    04:00 +19°C° 0 mm 4 mps 758 mmHg 93%
    05:00 +20°C° 0 mm 4 mps 758 mmHg 92%
    06:00 +20°C° 0 mm 4 mps 758 mmHg 91%
    07:00 +21°C° 0 mm 4 mps 758 mmHg 89%
    08:00 +21°C° 0.1 mm 4 mps 758 mmHg 87%
    09:00 +22°C° 0.1 mm 4 mps 758 mmHg 85%
    10:00 +23°C° 0.1 mm 4 mps 758 mmHg 83%
    11:00 +23°C° 0.1 mm 4 mps 758 mmHg 79%
    12:00 +25°C° 0.1 mm 5 mps 758 mmHg 76%
    13:00 +25°C° 0.1 mm 5 mps 758 mmHg 73%
    14:00 +24°C° 0.1 mm 6 mps 759 mmHg 74%
    15:00 +24°C° 0.1 mm 6 mps 759 mmHg 75%
    16:00 +23°C° 0.1 mm 6 mps 759 mmHg 76%
    17:00 +22°C° 0 mm 5 mps 759 mmHg 78%
    18:00 +22°C° 0 mm 5 mps 759 mmHg 80%
    19:00 +21°C° 0 mm 5 mps 759 mmHg 82%
    20:00 +20°C° 0 mm 4 mps 759 mmHg 84%
    21:00 +20°C° 0 mm 4 mps 759 mmHg 85%
    22:00 +19°C° 0 mm 4 mps 759 mmHg 86%
    23:00 +19°C° 0 mm 4 mps 759 mmHg 89%

    20 July, Friday

    Time Temperature Precipitation Wind Pressure Humidity
    00:00 +18°C° 0 mm 4 mps 759 mmHg 91%
    01:00 +18°C° 0 mm 4 mps 759 mmHg 93%
    02:00 +18°C° 0 mm 3 mps 759 mmHg 93%
    03:00 +17°C° 0 mm 3 mps 759 mmHg 93%
    04:00 +17°C° 0 mm 3 mps 758 mmHg 94%
    05:00 +18°C° 0 mm 3 mps 758 mmHg 89%
    06:00 +20°C° 0 mm 3 mps 758 mmHg 85%
    07:00 +21°C° 0 mm 3 mps 758 mmHg 81%
    08:00 +22°C° 0 mm 4 mps 758 mmHg 75%
    09:00 +25°C° 0 mm 4 mps 758 mmHg 69%
    10:00 +26°C° 0 mm 4 mps 759 mmHg 63%
    11:00 +26°C° 0 mm 4 mps 758 mmHg 62%
    12:00 +27°C° 0 mm 5 mps 758 mmHg 60%
    13:00 +27°C° 0 mm 5 mps 758 mmHg 58%
    14:00 +27°C° 0 mm 5 mps 758 mmHg 60%
    15:00 +26°C° 0 mm 5 mps 758 mmHg 62%
    16:00 +26°C° 0 mm 5 mps 758 mmHg 63%
    17:00 +23°C° 0 mm 5 mps 758 mmHg 68%
    18:00 +22°C° 0 mm 5 mps 758 mmHg 72%
    19:00 +21°C° 0 mm 4 mps 758 mmHg 76%
    20:00 +20°C° 0 mm 4 mps 758 mmHg 78%
    21:00 +18°C° 0 mm 4 mps 758 mmHg 80%
    22:00 +17°C° 0 mm 4 mps 758 mmHg 81%
    23:00 +17°C° 0 mm 4 mps 758 mmHg 82%

    21 July, Saturday

    Time Temperature Precipitation Wind Pressure Humidity
    00:00 +15°C° 0 mm 4 mps 758 mmHg 82%
    01:00 +15°C° 0 mm 4 mps 758 mmHg 82%
    02:00 +15°C° 0 mm 4 mps 758 mmHg 84%
    03:00 +14°C° 0 mm 4 mps 758 mmHg 87%
    04:00 +14°C° 0 mm 4 mps 757 mmHg 89%
    05:00 +17°C° 0 mm 4 mps 757 mmHg 85%
    06:00 +18°C° 0 mm 4 mps 757 mmHg 82%
    07:00 +20°C° 0 mm 4 mps 758 mmHg 78%
    08:00 +21°C° 0 mm 4 mps 758 mmHg 73%
    09:00 +22°C° 0 mm 4 mps 758 mmHg 68%
    10:00 +25°C° 0 mm 4 mps 758 mmHg 63%
    11:00 +25°C° 0 mm 4 mps 757 mmHg 62%
    12:00 +25°C° 0 mm 4 mps 757 mmHg 60%
    13:00 +26°C° 0 mm 4 mps 757 mmHg 58%
    14:00 +25°C° 0 mm 4 mps 757 mmHg 59%
    15:00 +25°C° 0 mm 4 mps 757 mmHg 61%
    16:00 +23°C° 0 mm 4 mps 757 mmHg 63%
    17:00 +22°C° 0 mm 4 mps 757 mmHg 67%
    18:00 +21°C° 0 mm 3 mps 757 mmHg 71%
    19:00 +20°C° 0 mm 3 mps 757 mmHg 76%
    20:00 +18°C° 0 mm 3 mps 757 mmHg 79%
    21:00 +17°C° 0 mm 2 mps 757 mmHg 82%
    22:00 +16°C° 0 mm 2 mps 757 mmHg 85%
    23:00 +16°C° 0 mm 2 mps 757 mmHg 84%

    22 July, Sunday

    Time Temperature Precipitation Wind Pressure Humidity
    00:00 +16°C° 0 mm 1 mps 757 mmHg 84%
    01:00 +16°C° 0 mm 1 mps 757 mmHg 84%
    02:00 +15°C° 0 mm 1 mps 757 mmHg 84%
    03:00 +15°C° 0 mm 1 mps 757 mmHg 85%
    04:00 +15°C° 0 mm 2 mps 757 mmHg 86%
    05:00 +16°C° 0 mm 2 mps 757 mmHg 82%
    06:00 +18°C° 0 mm 2 mps 757 mmHg 77%
    07:00 +19°C° 0 mm 2 mps 757 mmHg 73%
    08:00 +21°C° 0 mm 2 mps 758 mmHg 68%
    09:00 +23°C° 0 mm 2 mps 758 mmHg 64%
    10:00 +24°C° 0 mm 2 mps 758 mmHg 60%
    11:00 +24°C° 0.1 mm 2 mps 758 mmHg 61%
    12:00 +24°C° 0.1 mm 2 mps 758 mmHg 61%
    13:00 +25°C° 0.1 mm 3 mps 758 mmHg 62%
    14:00 +24°C° 0.1 mm 2 mps 758 mmHg 65%
    15:00 +24°C° 0.1 mm 2 mps 758 mmHg 67%
    16:00 +24°C° 0.1 mm 2 mps 758 mmHg 70%
    17:00 +23°C° 0 mm 2 mps 758 mmHg 74%
    18:00 +21°C° 0 mm 2 mps 759 mmHg 78%
    19:00 +20°C° 0 mm 2 mps 759 mmHg 82%
    20:00 +19°C° 0 mm 2 mps 759 mmHg 85%
    21:00 +18°C° 0 mm 2 mps 760 mmHg 88%
    22:00 +17°C° 0 mm 2 mps 760 mmHg 91%
    23:00 +17°C° 0 mm 2 mps 760 mmHg 92%
    Show more